Weather Roundup
Issued by NWS Chicago, IL

Home | Current Version | Previous Version | Graphics & Text | Print | Product List | Glossary On
Versions: 1 2 3 4 5 6 7 8 9 10 11 12 13 14 15 16 17 18 19 20 21 22 23 24 25 26 27 28 29 30 31 32 33 34 35 36 37 38 39 40 41 42 43 44 45 46 47 48 49 50
000
NZUS59 KLOT 190403
HRRLOT

CHICAGO AREA WEATHER ROUNDUP
NATIONAL WEATHER SERVICE CHICAGO/ROMEOVILLE IL
1000 PM CST SAT NOV 18 2017

NOTE: "FAIR" INDICATES FEW OR NO CLOUDS BELOW 12,000 FEET WITH NO
SIGNIFICANT WEATHER AND/OR OBSTRUCTIONS TO VISIBILITY.

* THESE STATIONS ARE NOT UNDER NWS QUALITY CONTROL. THEY ALSO MAY NOT
  REPORT WEATHER SUCH AS PRECIPITATION OR FOG.

ILZ005-006-012>014-019>023-190500-
NORTHEAST ILLINOIS

CITY           SKY/WX    TMP DP  RH WIND       PRES   REMARKS
OHARE          CLOUDY    39  28  64 NW24      29.79R
MIDWAY         CLOUDY    39  28  64 NW20G32   29.80R
AURORA         CLOUDY    36  32  85 W14       29.83R
LANSING*       CLOUDY    38  31  76 NW12G20   29.80R
JOLIET*        CLOUDY    39  33  78 NW6       29.84R
WAUKEGAN       CLOUDY    37  27  67 NW7G21    29.78R
DUPAGE AIRPORT CLOUDY    37  32  82 NW13      29.81R
WHEELING       CLOUDY    39  30  70 NW14G21   29.80R
KANKAKEE*      CLOUDY    38  32  77 NW14G21   29.83R
MORRIS*        CLOUDY    37  33  86 NW14      29.84R
LEWIS AIRPORT* CLOUDY    37  32  83 NW12      29.82R
NORTHERLY ISL    N/A     39  27  62 NW15        N/A
$$

WIZ051-052-058>065-066-070>072-190500-
SOUTHEAST WISCONSIN

CITY           SKY/WX    TMP DP  RH WIND       PRES   REMARKS
MILWAUKEE      CLOUDY    38  27  64 NW16G23   29.77R
KENOSHA*       CLOUDY    38  26  62 N12G28    29.78R
RACINE*        CLOUDY    37  26  64 NW18G32   29.79R
WAUKESHA       CLOUDY    32  25  74 NW18G28   29.80R WCI  20
WEST BEND      CLOUDY    34  28  80 NW17G24   29.78R WCI  23
$$

INZ001>003-010>013-019-020-190500-
NORTHWEST INDIANA

CITY           SKY/WX    TMP DP  RH WIND       PRES   REMARKS
GARY*          CLOUDY    40  29  64 NW17      29.79R
MICHIGAN CITY* NOT AVBL
RENSSELAER*    NOT AVBL
VALPARAISO     CLOUDY    41  31  67 NW12G21   29.76R
$$

LMZ740>746-190500-
SOUTHERN LAKE MICHIGAN

STATION/POSITION TIME  SKY/WX   TEMP WIND        PRES    VSBY
                                AIR  DIR/SP/G
                 (UTC)          (F)  (DEG/KT/KT) (MB)    (MI)
HARRISON CRIB    0340            40  320/ 20/ 22   N/A
BURNHAM HARBOR   0400            39  320/ 12/ 22   N/A
CALUMET HARBOR   NOT AVBL
BURNS HARBOR     0340            41  320/ 27/ 31 1007.8R
MICHIGAN CITY    0340            41  310/ 26/ 29   N/A
$$

ABBREVIATIONS USED IN REMARKS
   TC - TEMPERATURE IN CELSIUS
  WCI - WIND CHILL INDEX
   HX - HEAT INDEX
  VSB - VISIBILITY
$$




USA.gov is the U.S. government's official web portal to all federal, state and local government web resources and services.